"startDT [UTC]","vpos","CH4 [ppm]","stdev(CH4) [ppm]","CO2 [ppm]","stdev(CO2) [ppm]","H2O_reported [%]","stdev(H2O_reported)","CavityPressure [torr]","CavityTemp [C]","OutletValve","CH4_dry [ppm]","CO2_dry [ppm]","DasTemp [C]","EtalonTemp [C]","WarmBoxTemp [C]","MPVPosition","T_ECpre [C]","T_EC1 [C]","T_EC2 [C]","p_inlet [hPa]","p_in [hPa]","p_out [hPa]","T_inlet [C]","RH_inlet [%]","dwpt_inlet [C]","T_vent [C]","RH_vent [%]","dwpt_vent [C]","flow_vent [l min-1]","flow_inlet [l min-1]","dwpt_sample [C]","T_room [C]"
2016-04-03 00:00:00,3.0,1.88636,0.02595,399.713,3.824,0.0422,0.0624,140.001,45.000,31527.58497,1.88962,400.125,29.928,45.072,45.000,0.00,0.08,-272.73,-272.79,1,517,-935,13.9,8.8,-18.7,14.2,9.1,-18.1,5.73,1.98,-19.5,21.0
2016-04-03 00:01:00,3.0,1.87685,0.00038,397.220,0.066,0.0099,0.0024,139.999,45.000,31526.41555,1.87705,397.269,29.919,45.072,45.000,0.00,0.08,-272.73,-272.79,2,517,-935,13.9,8.1,-19.7,14.2,8.3,-19.2,5.73,2.02,-19.5,21.0
2016-04-03 00:02:00,3.0,1.87673,0.00035,397.477,0.104,0.0104,0.0014,140.000,45.000,31526.56857,1.87690,397.521,29.927,45.072,45.000,0.00,0.08,-272.74,-272.80,1,516,-935,13.9,7.5,-20.6,14.2,7.6,-20.1,5.73,1.97,-19.5,21.0
2016-04-03 00:03:00,3.0,1.87684,0.00046,397.643,0.029,0.0099,0.0015,139.998,45.000,31526.36247,1.87703,397.689,29.931,45.072,45.000,0.00,0.08,-272.74,-272.78,1,516,-935,14.0,7.1,-21.2,14.2,7.2,-20.8,5.73,1.91,-19.5,21.0
2016-04-03 00:04:00,3.0,1.87644,0.00042,397.634,0.019,0.0078,0.0020,140.001,45.000,31529.49787,1.87659,397.671,29.932,45.072,45.000,0.00,0.09,-272.75,-272.79,1,517,-935,14.0,6.8,-21.6,14.2,6.9,-21.2,5.73,1.87,-19.5,21.0
2016-04-03 00:05:00,3.0,1.87654,0.00053,397.633,0.034,0.0067,0.0024,139.999,45.000,31530.10100,1.87667,397.664,29.914,45.072,45.000,0.00,0.08,-272.76,-272.79,2,517,-935,14.0,6.7,-21.9,14.3,6.7,-21.5,5.73,1.90,-19.5,21.0
2016-04-03 00:06:00,3.0,1.87660,0.00043,397.642,0.034,0.0045,0.0020,140.001,45.000,31531.16693,1.87670,397.664,29.931,45.072,45.000,0.00,0.09,-272.74,-272.78,1,517,-935,14.0,6.5,-22.2,14.3,6.6,-21.8,5.73,1.96,-19.5,21.0
2016-04-03 00:07:00,3.0,1.87643,0.00029,397.642,0.034,0.0047,0.0020,139.997,45.000,31532.14276,1.87651,397.665,29.936,45.072,45.000,0.00,0.08,-272.74,-272.79,1,517,-935,14.0,6.4,-22.3,14.3,6.4,-22.0,5.73,2.01,-19.5,21.1
2016-04-03 00:08:00,3.0,1.87630,0.00032,397.640,0.025,0.0036,0.0019,140.000,45.000,31535.44873,1.87637,397.656,29.933,45.072,45.000,0.00,0.08,-272.74,-272.80,1,517,-935,14.1,6.5,-22.1,14.3,6.5,-21.8,5.73,2.01,-19.5,21.1
2016-04-03 00:09:00,3.0,1.87652,0.00032,397.652,0.025,0.0029,0.0018,139.999,45.000,31534.10562,1.87656,397.666,29.939,45.072,45.000,0.00,0.08,-272.74,-272.79,1,517,-936,14.1,6.8,-21.5,14.4,6.8,-21.3,5.73,1.95,-19.5,21.1
2016-04-03 00:10:00,3.0,1.87661,0.00038,397.638,0.024,0.0021,0.0016,139.998,45.000,31533.90690,1.87664,397.649,29.939,45.072,45.000,0.00,0.08,-272.74,-272.79,1,517,-935,14.1,7.4,-20.5,14.4,7.3,-20.5,5.73,1.88,-19.5,21.1
2016-04-03 00:11:00,3.0,1.87672,0.00029,397.655,0.026,0.0020,0.0017,139.998,45.000,31534.11325,1.87676,397.663,29.948,45.072,45.000,0.00,0.08,-272.74,-272.80,1,517,-935,14.2,8.0,-19.6,14.4,7.9,-19.6,5.73,1.88,-19.5,21.2
2016-04-03 00:12:00,3.0,1.87675,0.00031,397.669,0.031,0.0014,0.0024,139.999,45.000,31535.07551,1.87678,397.676,29.952,45.072,45.000,0.00,0.09,-272.74,-272.80,1,517,-936,14.2,8.7,-18.6,14.5,8.5,-18.7,5.73,1.92,-19.4,21.2
2016-04-03 00:13:00,3.0,1.87678,0.00033,397.651,0.029,0.0016,0.0019,140.002,45.000,31536.84471,1.87679,397.659,29.952,45.072,45.000,0.00,0.09,-272.74,-272.80,0,517,-936,14.2,9.3,-17.8,14.5,9.1,-17.8,5.73,1.99,-19.5,21.2
2016-04-03 00:14:00,3.0,1.87673,0.00038,397.650,0.025,0.0009,0.0018,140.001,45.000,31537.96235,1.87676,397.655,29.981,45.072,45.000,0.00,0.09,-272.74,-272.79,1,517,-935,14.3,9.8,-17.2,14.5,9.6,-17.2,5.73,2.02,-19.4,21.2
2016-04-03 00:15:00,3.0,1.87664,0.00040,397.654,0.030,0.0013,0.0015,140.001,45.000,31541.99024,1.87665,397.660,29.999,45.072,45.000,0.00,0.08,-272.74,-272.79,1,517,-935,14.3,10.1,-16.7,14.5,10.0,-16.7,5.73,1.99,-19.4,21.3
2016-04-03 00:16:00,3.0,1.87647,0.00034,397.663,0.026,0.0004,0.0027,139.997,45.000,31541.10171,1.87648,397.665,29.995,45.072,45.000,0.00,0.08,-272.73,-272.79,1,517,-935,14.3,10.6,-16.2,14.6,10.4,-16.2,5.73,1.92,-19.4,21.3
2016-04-03 00:17:00,3.0,1.87665,0.00047,397.661,0.028,0.0007,0.0016,139.998,45.000,31543.73392,1.87666,397.663,29.998,45.072,45.000,0.00,0.08,-272.74,-272.79,0,518,-935,14.4,10.9,-15.9,14.6,10.8,-15.8,5.73,1.87,-19.4,21.3
2016-04-03 00:18:00,3.0,1.87654,0.00033,397.658,0.030,0.0014,0.0014,140.001,45.000,31544.40276,1.87657,397.666,29.988,45.072,45.000,0.00,0.08,-272.75,-272.79,0,518,-935,14.4,11.2,-15.5,14.6,11.1,-15.5,5.73,1.89,-19.4,21.3
2016-04-03 00:19:00,3.0,1.87671,0.00026,397.665,0.032,0.0008,0.0018,140.001,45.000,31545.91272,1.87673,397.668,29.997,45.072,45.000,0.00,0.08,-272.74,-272.80,1,518,-935,14.4,11.3,-15.4,14.7,11.3,-15.2,5.73,1.95,-19.4,21.3
2016-04-03 00:20:00,0.0,1.93986,0.02311,407.178,3.705,0.1804,0.0762,139.995,45.000,31490.27701,1.94083,407.858,29.977,45.072,45.000,0.00,0.09,-272.73,-272.79,0,510,-936,14.4,10.6,-16.2,14.7,10.8,-15.7,5.73,2.13,-19.4,21.3
2016-04-03 00:21:00,0.0,1.94875,0.00034,408.773,0.037,0.2096,0.0054,140.000,45.000,31497.57440,1.95281,409.812,29.993,45.072,45.000,0.00,0.08,-272.74,-272.79,-1,511,-935,14.4,9.8,-17.0,14.7,10.1,-16.5,5.73,2.05,-19.4,21.3
2016-04-03 00:22:00,0.0,1.94875,0.00034,408.795,0.048,0.1963,0.0031,140.001,45.000,31501.27771,1.95250,409.763,29.993,45.072,45.000,0.00,0.08,-272.74,-272.80,-1,511,-935,14.5,9.1,-17.8,14.7,9.4,-17.3,5.73,1.93,-19.4,21.3
2016-04-03 00:23:00,0.0,1.94889,0.00024,408.869,0.037,0.1885,0.0027,140.002,45.000,31504.51330,1.95254,409.801,30.000,45.072,45.000,0.00,0.09,-272.73,-272.79,-0,512,-936,14.5,8.7,-18.4,14.7,8.9,-18.0,5.73,1.92,-19.4,21.4
2016-04-03 00:24:00,0.0,1.94878,0.00039,408.976,0.045,0.1812,0.0020,140.001,45.000,31505.66681,1.95225,409.870,30.001,45.072,45.000,0.00,0.08,-272.74,-272.80,-0,512,-936,14.6,8.3,-18.9,14.8,8.5,-18.4,5.73,2.05,-19.4,21.4
2016-04-03 00:25:00,0.0,1.94899,0.00028,408.979,0.039,0.1770,0.0016,140.000,45.000,31505.80140,1.95241,409.853,30.000,45.072,45.000,0.00,0.08,-272.75,-272.80,-1,512,-935,14.6,8.1,-19.1,14.8,8.3,-18.8,5.73,2.10,-19.4,21.4
2016-04-03 00:26:00,0.0,1.94991,0.00070,409.124,0.113,0.1684,0.0043,140.001,45.000,31509.26009,1.95309,409.953,29.998,45.072,45.000,0.00,0.09,-272.74,-272.79,-1,513,-935,14.6,7.8,-19.7,14.8,8.0,-19.2,5.73,2.00,-19.4,21.4
2016-04-03 00:27:00,0.0,1.95035,0.00028,409.286,0.045,0.1560,0.0026,139.999,45.000,31510.81452,1.95340,410.056,29.993,45.072,45.000,0.00,0.09,-272.74,-272.79,0,513,-936,14.6,7.2,-20.5,14.8,7.5,-19.9,5.73,1.90,-19.4,21.4
2016-04-03 00:28:00,0.0,1.95106,0.00048,409.424,0.037,0.1502,0.0020,140.000,45.000,31510.61632,1.95393,410.165,29.994,45.072,45.000,0.00,0.08,-272.74,-272.80,-1,513,-936,14.6,6.9,-21.0,14.8,7.1,-20.5,5.73,1.97,-19.4,21.4
2016-04-03 00:29:00,0.0,1.95118,0.00038,409.440,0.045,0.1466,0.0022,139.997,45.000,31509.52862,1.95403,410.162,29.999,45.072,45.000,0.00,0.08,-272.74,-272.79,-1,513,-936,14.6,6.7,-21.4,14.8,6.9,-20.9,5.73,2.10,-19.4,21.5
2016-04-03 00:30:00,0.0,1.95104,0.00046,409.443,0.056,0.1433,0.0018,139.996,45.000,31512.01720,1.95378,410.152,30.000,45.072,45.000,0.00,0.09,-272.74,-272.78,-0,513,-936,14.6,6.5,-21.6,14.8,6.7,-21.2,5.73,2.08,-19.4,21.5
2016-04-03 00:31:00,0.0,1.95157,0.00037,409.484,0.032,0.1410,0.0019,140.000,45.000,31515.50708,1.95427,410.179,30.000,45.072,45.000,0.00,0.09,-272.74,-272.79,0,514,-935,14.6,6.4,-21.8,14.9,6.6,-21.4,5.73,1.94,-19.4,21.5
2016-04-03 00:32:00,0.0,1.95201,0.00055,409.442,0.027,0.1380,0.0015,140.000,45.000,31514.29325,1.95465,410.123,30.000,45.072,45.000,0.00,0.08,-272.74,-272.80,-1,514,-935,14.7,6.3,-22.1,14.9,6.4,-21.6,5.73,1.91,-19.4,21.5
2016-04-03 00:33:00,0.0,1.95179,0.00057,409.420,0.041,0.1359,0.0019,139.998,45.000,31514.96542,1.95446,410.094,30.003,45.072,45.000,0.00,0.09,-272.73,-272.79,-0,514,-936,14.6,6.2,-22.2,14.9,6.3,-21.8,5.73,2.03,-19.3,21.5
2016-04-03 00:34:00,0.0,1.95233,0.00047,409.508,0.131,0.1354,0.0021,140.001,45.000,31516.76121,1.95489,410.174,30.006,45.072,45.000,0.00,0.09,-272.74,-272.80,0,514,-935,14.6,6.1,-22.3,14.9,6.2,-21.9,5.73,2.11,-19.4,21.5
2016-04-03 00:35:00,0.0,1.95292,0.00036,409.746,0.130,0.1342,0.0012,140.001,45.000,31517.03632,1.95549,410.404,30.007,45.072,45.000,0.00,0.08,-272.74,-272.80,-0,514,-936,14.6,6.1,-22.4,14.9,6.2,-22.1,5.73,2.02,-19.3,21.5
2016-04-03 00:36:00,0.0,1.95276,0.00037,409.750,0.051,0.1347,0.0022,140.000,45.000,31516.42364,1.95539,410.418,30.007,45.072,45.000,0.00,0.09,-272.73,-272.80,-1,514,-935,14.6,6.1,-22.4,14.9,6.2,-22.1,5.73,1.90,-19.4,21.5
2016-04-03 00:37:00,0.0,1.95229,0.00040,409.669,0.026,0.1363,0.0017,139.999,45.000,31515.24410,1.95492,410.341,30.024,45.072,45.000,0.00,0.09,-272.73,-272.79,-0,514,-935,14.6,6.2,-22.3,14.9,6.2,-22.0,5.73,1.95,-19.3,21.6
2016-04-03 00:38:00,0.0,1.95221,0.00045,409.630,0.035,0.1363,0.0016,140.001,45.000,31515.80097,1.95483,410.305,30.048,45.072,45.000,0.00,0.08,-272.75,-272.80,0,514,-935,14.5,6.2,-22.2,14.9,6.3,-21.9,5.73,2.08,-19.3,21.5
2016-04-03 00:39:00,0.0,1.95210,0.00037,409.618,0.029,0.1369,0.0011,140.000,45.000,31515.81910,1.95471,410.295,30.063,45.072,45.000,0.00,0.09,-272.75,-272.80,-1,514,-936,14.5,6.2,-22.2,14.8,6.3,-21.9,5.73,2.09,-19.3,21.5
2016-04-03 00:40:00,0.0,1.95191,0.00035,409.574,0.031,0.1380,0.0019,140.000,45.000,31515.55374,1.95460,410.256,30.063,45.072,45.000,0.00,0.09,-272.74,-272.79,-1,514,-935,14.5,6.3,-22.1,14.8,6.3,-21.8,5.73,1.97,-19.3,21.5
2016-04-03 00:41:00,0.0,1.95180,0.00045,409.562,0.045,0.1396,0.0020,140.001,45.000,31514.89749,1.95452,410.251,30.064,45.072,45.000,0.00,0.09,-272.74,-272.80,0,514,-935,14.5,6.4,-22.0,14.9,6.4,-21.8,5.73,1.91,-19.3,21.5
2016-04-03 00:42:00,0.0,1.95190,0.00033,409.529,0.038,0.1406,0.0019,140.001,45.000,31516.00026,1.95457,410.223,30.080,45.072,45.000,0.00,0.08,-272.74,-272.80,0,514,-935,14.5,6.4,-21.9,14.9,6.4,-21.6,5.73,1.99,-19.3,21.5
2016-04-03 00:43:00,0.0,1.95153,0.00048,409.517,0.033,0.1408,0.0017,140.002,45.000,31518.73799,1.95427,410.213,30.072,45.072,45.000,0.00,0.08,-272.74,-272.79,-1,514,-935,14.5,6.5,-21.8,14.8,6.5,-21.6,5.73,2.09,-19.3,21.5
2016-04-03 00:44:00,0.0,1.95117,0.00030,409.498,0.039,0.1428,0.0015,139.999,45.000,31517.41100,1.95394,410.205,30.095,45.072,45.000,0.00,0.09,-272.74,-272.79,-0,514,-935,14.5,6.5,-21.7,14.8,6.5,-21.5,5.73,2.08,-19.3,21.5
2016-04-03 00:45:00,0.0,1.95093,0.00047,409.433,0.037,0.1460,0.0019,140.002,45.000,31520.61251,1.95375,410.155,30.118,45.072,45.000,0.00,0.08,-272.75,-272.79,0,514,-935,14.5,6.7,-21.5,14.8,6.6,-21.3,5.73,1.97,-19.3,21.5
2016-04-03 00:46:00,0.0,1.95054,0.00032,409.425,0.026,0.1494,0.0019,140.000,45.000,31519.31695,1.95341,410.162,30.125,45.072,45.000,0.00,0.09,-272.74,-272.80,0,514,-935,14.5,6.8,-21.2,14.9,6.8,-21.0,5.73,1.90,-19.3,21.6
2016-04-03 00:47:00,0.0,1.95027,0.00034,409.375,0.028,0.1529,0.0017,139.998,45.000,31519.73600,1.95322,410.131,30.132,45.072,45.000,0.00,0.09,-272.73,-272.79,-1,514,-935,14.5,7.0,-20.9,14.9,6.9,-20.8,5.73,1.98,-19.3,21.6
2016-04-03 00:48:00,0.0,1.95029,0.00042,409.404,0.024,0.1542,0.0019,139.998,45.000,31519.99275,1.95327,410.165,30.133,45.072,45.000,0.00,0.08,-272.74,-272.80,-0,514,-935,14.5,7.1,-20.8,14.9,7.0,-20.6,5.73,2.09,-19.3,21.6
2016-04-03 00:49:00,0.0,1.94988,0.00047,409.454,0.055,0.1555,0.0011,140.000,45.000,31522.78055,1.95289,410.222,30.139,45.072,45.000,0.00,0.08,-272.74,-272.80,0,514,-935,14.5,7.1,-20.7,14.8,7.1,-20.5,5.73,2.08,-19.3,21.5
2016-04-03 00:50:00,0.0,1.94980,0.00034,409.343,0.087,0.1573,0.0018,140.001,45.000,31524.42029,1.95281,410.124,30.133,45.072,45.000,0.00,0.09,-272.74,-272.79,-0,515,-935,14.5,7.2,-20.6,14.8,7.1,-20.5,5.73,1.96,-19.3,21.6
2016-04-03 00:51:00,0.0,1.94969,0.00044,409.306,0.111,0.1588,0.0020,139.998,45.000,31522.64185,1.95273,410.088,30.141,45.072,45.000,0.00,0.09,-272.74,-272.79,-1,515,-935,14.5,7.3,-20.5,14.9,7.2,-20.3,5.73,1.91,-19.3,21.6
2016-04-03 00:52:00,0.0,1.95027,0.00042,409.428,0.084,0.1573,0.0020,140.002,45.000,31523.67727,1.95330,410.205,30.170,45.072,45.000,0.00,0.08,-272.75,-272.80,-0,514,-935,14.5,7.2,-20.6,14.9,7.2,-20.3,5.73,1.99,-19.3,21.6
2016-04-03 00:53:00,0.0,1.95031,0.00053,409.420,0.074,0.1553,0.0017,140.001,45.000,31525.69639,1.95327,410.187,30.173,45.072,45.000,0.00,0.09,-272.74,-272.80,0,515,-935,14.5,7.1,-20.7,14.9,7.1,-20.4,5.73,2.10,-19.3,21.6
2016-04-03 00:54:00,0.0,1.95039,0.00051,409.267,0.258,0.1532,0.0018,139.999,45.000,31525.10094,1.95340,410.033,30.153,45.072,45.000,0.00,0.09,-272.74,-272.79,-0,515,-935,14.5,7.0,-20.9,14.9,7.0,-20.6,5.73,2.06,-19.3,21.6
2016-04-03 00:55:00,0.0,1.94949,0.00033,409.016,0.085,0.1532,0.0018,140.001,45.000,31527.26124,1.95243,409.769,30.160,45.072,45.000,0.00,0.08,-272.74,-272.79,-1,515,-935,14.5,7.0,-20.9,14.9,7.0,-20.7,5.73,1.95,-19.3,21.6
2016-04-03 00:56:00,0.0,1.95034,0.00079,409.064,0.061,0.1546,0.0020,140.000,45.000,31526.92439,1.95328,409.827,30.176,45.072,45.000,0.00,0.09,-272.74,-272.79,0,515,-935,14.5,7.1,-20.8,14.9,7.0,-20.6,5.73,1.91,-19.3,21.6
2016-04-03 00:57:00,0.0,1.95108,0.00034,409.097,0.047,0.1541,0.0023,139.997,45.000,31525.82796,1.95404,409.859,30.187,45.072,45.000,0.00,0.09,-272.74,-272.79,0,515,-935,14.5,7.1,-20.8,14.9,7.0,-20.6,5.73,2.00,-19.3,21.6
2016-04-03 00:58:00,0.0,1.95158,0.00055,409.128,0.045,0.1522,0.0021,140.000,45.000,31526.77147,1.95446,409.877,30.168,45.072,45.000,0.00,0.08,-272.74,-272.80,-0,515,-935,14.4,7.0,-21.0,14.9,7.0,-20.6,5.73,2.10,-19.3,21.6
2016-04-03 00:59:00,0.0,1.95202,0.00038,409.193,0.045,0.1544,0.0031,140.002,45.000,31526.36307,1.95502,409.955,30.154,45.072,45.000,0.00,0.08,-272.74,-272.80,-1,515,-935,14.4,7.1,-20.9,14.9,7.0,-20.7,5.73,2.06,-19.2,21.6
2016-04-03 01:00:00,0.0,1.95167,0.00045,409.143,0.027,0.1671,0.0046,139.999,45.000,31526.80986,1.95489,409.966,30.155,45.072,45.000,0.00,0.09,-272.73,-272.79,0,515,-935,14.4,7.6,-20.1,14.9,7.3,-20.1,5.73,1.94,-19.2,21.5
2016-04-03 01:01:00,0.0,1.95110,0.00035,409.090,0.045,0.1786,0.0034,140.000,45.000,31527.80693,1.95456,409.973,30.143,45.072,45.000,0.00,0.08,-272.73,-272.79,0,515,-935,14.4,8.1,-19.2,14.8,7.9,-19.3,5.73,1.92,-19.2,21.5
2016-04-03 01:02:00,0.0,1.95112,0.00034,409.036,0.025,0.1836,0.0018,139.998,45.000,31526.53779,1.95465,409.943,30.170,45.072,45.001,0.00,0.08,-272.74,-272.80,-0,515,-935,14.4,8.4,-18.9,14.8,8.2,-18.8,5.73,2.01,-19.2,21.5
2016-04-03 01:03:00,0.0,1.95171,0.00034,409.120,0.028,0.1767,0.0039,139.999,45.000,31527.33920,1.95512,409.993,30.189,45.072,45.000,0.00,0.09,-272.74,-272.79,-1,515,-935,14.4,8.2,-19.2,14.8,8.2,-18.9,5.73,2.09,-19.2,21.5
2016-04-03 01:04:00,0.0,1.95107,0.00051,409.083,0.068,0.1732,0.0019,139.998,45.000,31527.24287,1.95445,409.940,30.186,45.072,45.000,0.00,0.09,-272.74,-272.78,0,514,-935,14.4,8.0,-19.5,14.8,7.9,-19.2,5.73,2.07,-19.2,21.5
2016-04-03 01:05:00,0.0,1.95040,0.00050,408.961,0.063,0.1802,0.0047,139.999,45.000,31530.05696,1.95389,409.851,30.187,45.072,45.000,0.00,0.08,-272.74,-272.80,0,515,-935,14.4,8.2,-19.1,14.8,8.0,-19.1,5.73,1.97,-19.2,21.4
2016-04-03 01:06:00,0.0,1.95028,0.00061,408.936,0.046,0.1955,0.0031,139.999,45.000,31530.34231,1.95400,409.900,30.187,45.072,45.000,0.00,0.09,-272.74,-272.80,-0,515,-935,14.4,8.8,-18.3,14.8,8.5,-18.4,5.73,1.91,-19.2,21.4
2016-04-03 01:07:00,0.0,1.95082,0.00036,408.991,0.036,0.1910,0.0038,139.999,45.000,31527.89448,1.95452,409.934,30.195,45.072,45.000,0.00,0.09,-272.74,-272.80,-1,514,-935,14.4,8.8,-18.3,14.8,8.7,-18.1,5.73,1.96,-19.2,21.4
2016-04-03 01:08:00,0.0,1.95092,0.00039,409.047,0.032,0.1801,0.0041,139.998,45.000,31525.98539,1.95440,409.939,30.203,45.072,45.000,0.00,0.08,-272.74,-272.79,0,514,-935,14.4,8.3,-19.0,14.8,8.4,-18.6,5.73,2.06,-19.2,21.4
2016-04-03 01:09:00,0.0,1.95080,0.00036,409.032,0.042,0.1670,0.0030,140.000,45.000,31526.45551,1.95402,409.858,30.230,45.072,45.000,0.00,0.08,-272.75,-272.79,0,515,-935,14.5,7.7,-19.8,14.8,7.9,-19.3,5.73,2.10,-19.2,21.5
2016-04-03 01:10:00,0.0,1.95093,0.00045,408.975,0.028,0.1582,0.0024,139.999,45.000,31527.89328,1.95397,409.758,30.241,45.072,45.000,0.00,0.09,-272.74,-272.79,-0,515,-935,14.5,7.3,-20.5,14.8,7.4,-20.0,5.73,2.01,-19.2,21.5
2016-04-03 01:11:00,0.0,1.95082,0.00031,408.952,0.043,0.1540,0.0018,139.995,45.000,31528.24144,1.95382,409.713,30.251,45.072,45.000,0.00,0.09,-272.74,-272.79,-1,515,-935,14.5,7.1,-20.9,14.8,7.1,-20.5,5.73,1.92,-19.2,21.5
2016-04-03 01:12:00,0.0,1.95041,0.00046,408.906,0.036,0.1539,0.0019,139.998,45.000,31528.07007,1.95337,409.665,30.250,45.072,45.000,0.00,0.08,-272.74,-272.80,0,515,-935,14.5,7.0,-20.9,14.8,7.0,-20.6,5.73,1.94,-19.2,21.5
2016-04-03 01:13:00,0.0,1.95036,0.00039,408.871,0.032,0.1536,0.0013,140.000,45.000,31528.63353,1.95333,409.626,30.250,45.072,45.000,0.00,0.09,-272.74,-272.79,0,515,-935,14.5,7.0,-20.9,14.8,7.0,-20.7,5.73,2.04,-19.2,21.5
2016-04-03 01:14:00,0.0,1.95054,0.00052,408.886,0.024,0.1555,0.0015,140.001,45.000,31528.19399,1.95351,409.654,30.251,45.072,45.000,0.00,0.08,-272.74,-272.79,-0,515,-935,14.5,7.1,-20.8,14.8,7.1,-20.6,5.73,2.09,-19.2,21.5
2016-04-03 01:15:00,0.0,1.95045,0.00041,408.912,0.031,0.1571,0.0018,139.999,45.000,31527.88511,1.95344,409.687,30.251,45.072,45.000,0.00,0.08,-272.74,-272.79,-1,515,-935,14.5,7.1,-20.7,14.8,7.1,-20.5,5.73,2.03,-19.2,21.5
2016-04-03 01:16:00,0.0,1.95089,0.00041,408.940,0.035,0.1590,0.0018,139.998,45.000,31528.73648,1.95395,409.723,30.256,45.072,45.000,0.00,0.08,-272.74,-272.79,0,515,-935,14.4,7.2,-20.6,14.8,7.2,-20.4,5.73,1.93,-19.2,21.5
2016-04-03 01:17:00,0.0,1.95125,0.00039,408.972,0.024,0.1647,0.0028,140.003,45.000,31530.27821,1.95443,409.785,30.269,45.072,45.000,0.00,0.09,-272.73,-272.79,0,515,-935,14.4,7.5,-20.2,14.8,7.4,-20.1,5.73,1.92,-19.2,21.6
2016-04-03 01:18:00,0.0,1.95104,0.00087,409.029,0.080,0.1768,0.0045,140.001,45.000,31528.95609,1.95435,409.895,30.290,45.072,45.000,0.00,0.09,-272.74,-272.80,-1,515,-935,14.4,8.0,-19.5,14.8,7.7,-19.5,5.73,2.02,-19.2,21.6
2016-04-03 01:19:00,0.0,1.95235,0.00079,409.063,0.065,0.1883,0.0035,140.001,45.000,31528.70502,1.95600,409.996,30.282,45.072,45.000,0.00,0.08,-272.75,-272.80,-1,515,-935,14.4,8.5,-18.7,14.8,8.3,-18.8,5.73,2.10,-19.2,21.6
2016-04-03 01:20:00,0.0,1.95416,0.00047,409.064,0.037,0.1974,0.0037,139.998,45.000,31527.95847,1.95795,410.037,30.312,45.072,45.000,0.00,0.09,-272.74,-272.79,0,515,-935,14.4,8.9,-18.1,14.8,8.7,-18.2,5.73,2.05,-19.2,21.5
2016-04-03 01:21:00,0.0,1.95338,0.00034,408.984,0.039,0.2116,0.0046,139.999,45.000,31528.31697,1.95750,410.030,30.313,45.072,45.000,0.00,0.09,-272.74,-272.79,0,515,-935,14.4,9.5,-17.4,14.8,9.2,-17.5,5.73,1.94,-19.2,21.5
2016-04-03 01:22:00,0.0,1.95257,0.00032,408.833,0.058,0.2269,0.0048,140.002,45.000,31528.48636,1.95696,409.956,30.316,45.072,45.000,0.00,0.08,-272.74,-272.80,-0,515,-935,14.4,10.2,-16.6,14.8,9.8,-16.7,5.73,1.92,-19.2,21.5
2016-04-03 01:23:00,0.0,1.95260,0.00037,408.762,0.026,0.2314,0.0021,140.001,45.000,31531.22986,1.95705,409.906,30.320,45.072,45.000,0.00,0.08,-272.74,-272.79,-1,515,-935,14.5,10.5,-16.1,14.8,10.3,-16.2,5.73,2.00,-19.1,21.5
2016-04-03 01:24:00,0.0,1.95195,0.00041,408.706,0.037,0.2398,0.0041,140.002,45.000,31533.43501,1.95661,409.891,30.315,45.072,45.000,0.00,0.08,-272.74,-272.79,0,515,-935,14.5,10.9,-15.8,14.8,10.5,-15.9,5.73,2.09,-19.1,21.5
2016-04-03 01:25:00,0.0,1.95250,0.00044,408.737,0.026,0.2470,0.0023,140.000,45.000,31532.48147,1.95725,409.958,30.321,45.072,45.000,0.00,0.08,-272.74,-272.79,0,515,-935,14.5,11.3,-15.3,14.8,11.0,-15.4,5.73,2.07,-19.1,21.5
2016-04-03 01:26:00,0.0,1.95237,0.00035,408.744,0.032,0.2474,0.0031,140.001,45.000,31533.27434,1.95716,409.967,30.335,45.072,45.000,0.00,0.08,-272.75,-272.79,-0,515,-935,14.5,11.3,-15.3,14.8,11.1,-15.3,5.73,1.96,-19.1,21.6
2016-04-03 01:27:00,0.0,1.95203,0.00035,408.662,0.030,0.2549,0.0024,139.999,45.000,31533.15301,1.95698,409.924,30.333,45.072,45.000,0.00,0.09,-272.73,-272.79,-1,515,-935,14.5,11.6,-14.9,14.8,11.4,-15.0,5.73,1.91,-19.1,21.6
2016-04-03 01:28:00,0.0,1.95162,0.00028,408.603,0.038,0.2604,0.0022,139.998,45.000,31534.95796,1.95665,409.890,30.323,45.072,45.000,0.00,0.08,-272.74,-272.80,0,515,-935,14.5,11.9,-14.7,14.8,11.6,-14.7,5.73,1.98,-19.1,21.5
2016-04-03 01:29:00,0.0,1.95135,0.00031,408.567,0.040,0.2632,0.0013,140.001,45.000,31536.10432,1.95645,409.871,30.353,45.072,45.000,0.00,0.08,-272.74,-272.80,0,515,-935,14.5,12.0,-14.5,14.9,11.8,-14.5,5.73,2.07,-19.1,21.5
2016-04-03 01:30:00,0.0,1.95031,0.00064,408.513,0.026,0.2616,0.0024,139.998,45.000,31534.81155,1.95544,409.807,30.347,45.072,45.000,0.00,0.09,-272.73,-272.79,-0,515,-935,14.5,12.0,-14.6,14.8,11.8,-14.5,5.73,2.08,-19.1,21.5
2016-04-03 01:31:00,0.0,1.95060,0.00064,408.583,0.061,0.2569,0.0022,140.000,45.000,31534.45631,1.95549,409.852,30.366,45.072,45.000,0.00,0.09,-272.74,-272.79,-1,515,-935,14.5,11.8,-14.8,14.9,11.7,-14.6,5.73,2.01,-19.1,21.5
2016-04-03 01:32:00,0.0,1.95062,0.00068,408.615,0.057,0.2480,0.0040,140.000,45.000,31533.52103,1.95542,409.842,30.375,45.072,45.000,0.00,0.08,-272.75,-272.80,-0,515,-936,14.6,11.3,-15.2,14.8,11.4,-15.0,5.73,1.93,-19.1,21.5
2016-04-03 01:33:00,0.0,1.95196,0.00054,408.793,0.045,0.2351,0.0031,140.000,45.000,31533.97659,1.95648,409.954,30.373,45.072,45.000,0.00,0.09,-272.75,-272.80,0,515,-936,14.6,10.6,-16.0,14.8,10.8,-15.6,5.73,1.93,-19.1,21.5
2016-04-03 01:34:00,0.0,1.95253,0.00047,408.879,0.045,0.2246,0.0045,139.999,45.000,31534.78120,1.95687,409.989,30.376,45.072,45.000,0.00,0.09,-272.73,-272.79,-0,515,-935,14.6,10.1,-16.5,14.9,10.3,-16.2,5.73,2.00,-19.1,21.6
2016-04-03 01:35:00,0.0,1.95366,0.00043,409.034,0.038,0.2069,0.0053,140.002,45.000,31534.80272,1.95764,410.058,30.394,45.072,45.000,0.00,0.08,-272.74,-272.80,-1,515,-935,14.6,9.4,-17.4,14.9,9.6,-16.9,5.73,2.07,-19.1,21.6
2016-04-03 01:36:00,0.0,1.95396,0.00036,409.165,0.059,0.1846,0.0080,140.001,45.000,31533.44518,1.95752,410.076,30.435,45.072,45.000,0.00,0.08,-272.75,-272.80,-0,515,-935,14.6,8.4,-18.7,14.9,8.8,-18.0,5.73,2.07,-19.1,21.6
2016-04-03 01:37:00,0.0,1.95412,0.00045,409.299,0.037,0.1646,0.0043,139.998,45.000,31534.41899,1.95728,410.113,30.438,45.072,45.000,0.00,0.08,-272.74,-272.78,0,515,-935,14.6,7.5,-20.0,14.9,7.9,-19.2,5.73,1.99,-19.1,21.6
2016-04-03 01:38:00,0.0,1.95481,0.00036,409.380,0.043,0.1530,0.0036,139.999,45.000,31533.54907,1.95774,410.135,30.438,45.072,45.000,0.00,0.09,-272.74,-272.79,0,515,-935,14.6,6.9,-20.9,14.9,7.2,-20.2,5.73,1.93,-19.1,21.6
2016-04-03 01:39:00,0.0,1.95430,0.00065,409.457,0.033,0.1439,0.0029,139.999,45.000,31534.94914,1.95712,410.167,30.438,45.072,45.000,0.00,0.08,-272.75,-272.80,-1,515,-935,14.6,6.5,-21.7,14.9,6.7,-21.0,5.73,1.94,-19.0,21.6
2016-04-03 01:40:00,0.0,1.95438,0.00056,409.516,0.040,0.1328,0.0042,140.000,45.000,31534.36442,1.95690,410.173,30.438,45.072,45.000,0.00,0.08,-272.74,-272.79,-1,515,-936,14.6,6.0,-22.6,14.9,6.3,-21.8,5.73,2.03,-19.0,21.6
2016-04-03 01:41:00,0.0,1.95607,0.00041,409.619,0.040,0.1131,0.0047,140.001,45.000,31533.57680,1.95821,410.178,30.439,45.072,45.000,0.00,0.09,-272.73,-272.79,0,515,-935,14.6,5.2,-24.3,14.9,5.6,-23.2,5.73,2.08,-19.0,21.6
2016-04-03 01:42:00,0.0,1.95610,0.00056,409.666,0.037,0.1069,0.0016,140.000,45.000,31534.71270,1.95817,410.193,30.466,45.072,45.000,0.00,0.09,-272.74,-272.80,0,515,-935,14.6,4.8,-25.2,14.9,5.0,-24.4,5.73,2.05,-19.0,21.7
2016-04-03 01:43:00,0.0,1.95654,0.00038,409.711,0.053,0.1058,0.0017,140.001,45.000,31536.02053,1.95857,410.231,30.473,45.072,45.000,0.00,0.08,-272.74,-272.80,-0,515,-936,14.6,4.7,-25.3,14.9,4.9,-24.7,5.73,1.96,-19.0,21.6
2016-04-03 01:44:00,0.0,1.95598,0.00053,409.675,0.061,0.1070,0.0030,140.000,45.000,31536.29407,1.95806,410.203,30.497,45.072,45.000,0.00,0.09,-272.73,-272.79,-1,515,-936,14.6,4.7,-25.3,14.9,4.9,-24.7,5.73,1.92,-19.0,21.6
2016-04-03 01:45:00,0.0,1.95636,0.00041,409.722,0.038,0.1060,0.0025,140.002,45.000,31538.57771,1.95841,410.245,30.500,45.072,45.000,0.00,0.09,-272.74,-272.80,-0,515,-936,14.6,4.7,-25.3,14.9,4.9,-24.7,5.73,1.97,-19.0,21.6